Regional Weather Roundup
Issued by NWS

Home | Current Version | Previous Version | Graphics & Text | Print | Product List | Glossary On
Versions: 1 2 3 4 5 6 7 8 9 10 11 12 13 14 15 16 17 18 19 20 21 22 23 24 25 26 27 28 29 30 31 32 33 34 35 36 37 38 39 40 41 42 43 44 45 46 47 48 49 50
470
ASUS43 KMPX 181301
RWRMN
WEATHER ROUNDUP FOR MINNESOTA
NATIONAL WEATHER SERVICE TWIN CITIES/CHANHASSEN MN
700 AM CST WED JAN 18 2017


NOTE: "FAIR" INDICATES FEW OR NO CLOUDS BELOW 12,000 FEET WITH NO
SIGNIFICANT WEATHER AND/OR OBSTRUCTIONS TO VISIBILITY. N/A MEANS
CURRENT SKY AND/OR WEATHER CONDITIONS ARE NOT AVAILABLE.

MNZ060>063-068>070-181400-
   Twin Cities Metro

CITY           SKY/WX    TMP DP  RH WIND       PRES   REMARKS
TWIN CITIES    CLOUDY    30  25  81 S8        29.93F WCI  22
ST PAUL        CLOUDY    26  25  96 SE8       29.95F FOG     WCI  18
CRYSTAL        CLEAR     29  23  78 S9        29.90F WCI  20
BLAINE         CLEAR     30  28  93 S13G20    29.90F WCI  20
LAKEVILLE      CLOUDY    27  27 100 S9        29.93F WCI  17
EDEN PRAIRIE   CLOUDY    30  25  81 S14       29.91F WCI  19
SOUTH ST PAUL  CLOUDY    28  26  93 S7        29.93F WCI  20
LAKE ELMO      FAIR      28  27  93 S12       29.93F WCI  18
$$
MNZ001>005-007-008-013>017-022>024-027-028-181400-
   Northwest Minnesota

CITY           SKY/WX    TMP DP  RH WIND       PRES   REMARKS
BEMIDJI        CLOUDY    26  20  77 SW8       29.71F WCI  17
HALLOCK        CLOUDY    18  16  93 S9        29.67R WCI   6
ROSEAU         CLOUDY    19  16  86 S9        29.67R WCI   9
WARROAD        CLOUDY    21  18  86 SW9       29.66R WCI  11
THIEF RVR FALL CLOUDY    21  17  84 S14       29.70S WCI   8
CROOKSTON      CLOUDY    19  16  86 S10       29.74R WCI   8
FOSSTON        CLOUDY    19  18  93 S16       29.73S WCI   5
DETROIT LAKES  CLOUDY    25  21  86 S6        29.78S WCI  18
MOORHEAD       CLOUDY    18  16  93 S10       29.77F WCI   6
PARK RAPIDS    CLOUDY    16  11  80 S8        29.75S WCI   5
MAHNOMEN       FAIR      22  18  84 S12       29.74R WCI  10
$$
MNZ006-009>011-018-025>026-181400-
   North Central Minnesota

CITY           SKY/WX    TMP DP  RH WIND       PRES   REMARKS
BAUDETTE       CLOUDY    21  15  78 S6        29.67R WCI  13
FLAG ISLAND    CLOUDY    16  10  79 SE8       29.65S WCI   5
INTL FALLS     CLOUDY    21  15  78 SW6       29.69R WCI  13
WASKISH        CLOUDY    19  16  86 CALM      29.70R
BIG FORK       CLOUDY    25  18  74 SW7       29.72R WCI  17
LONGVILLE      CLOUDY    21  19  93 S3        29.77S
GRAND RAPIDS   CLOUDY    21  19  92 S8        29.77F WCI  11
CRANE LAKE     CLOUDY    23  18  80 S3        29.74R
ORR            CLOUDY    21  16  79 CALM      29.70R
COOK           CLOUDY    25  19  80 SW6       29.75R WCI  18
WALKER         FAIR      24  19  83 SW5       29.74R WCI  18
$$
MNZ012-019>021-037-181400-
   Northeast Minnesota

CITY           SKY/WX    TMP DP  RH WIND       PRES   REMARKS
DULUTH         CLOUDY    27  25  92 SW16      29.75F WCI  15
ELY            CLOUDY    25  19  80 SW7       29.72R WCI  17
HIBBING        CLOUDY    20  19  96 VRB3      29.74F
EVELETH        CLOUDY    24  20  85 SW8       29.76R WCI  15
DULUTH HARBOR  CLOUDY    27  25  93 SW8       29.82S WCI  18
TWO HARBORS    CLEAR     25  19  80 W6        29.75S WCI  18
SILVER BAY     CLEAR     23  21  93 SW5       29.74S WCI  17
GRAND MARAIS     N/A     31  26  82 W9        29.76S WCI  23
G MARAIS ARPRT CLEAR     21  18  86 SW6       29.70S FOG     WCI  14
$$
MNZ029>031-032-039>041-046>048-054>057-064-181400-
   West Central Minnesota

CITY           SKY/WX    TMP DP  RH WIND       PRES   REMARKS
FERGUS FALLS   CLOUDY    19  18  93 S7        29.85S WCI  10
WHEATON        CLOUDY    30  27  86 S3        29.83R
MORRIS         CLOUDY    21  19  93 S8        29.81R WCI  12
ALEXANDRIA     CLOUDY    25  21  85 SW12      29.81R WCI  14
ELBOW LAKE     FAIR      21  19  91 S8        29.82R FOG     WCI  11
WADENA         CLOUDY    19  18  93 CALM      29.79R
GLENWOOD       CLOUDY    25  21  86 S13       29.81F WCI  13
APPLETON       CLOUDY    28  23  80 S6        29.82S WCI  22
ORTONVILLE     CLOUDY    28  21  74 CALM      29.81R
MADISON        CLOUDY    27  21  80 S13       29.83S WCI  16
WILLMAR        FAIR      27  25  93 CALM      29.86S
$$
MNZ033>034-036-042>043-049>051-058-059-181400-
   Central Minnesota

CITY           SKY/WX    TMP DP  RH WIND       PRES   REMARKS
ST CLOUD       CLOUDY    23  22  96 S6        29.85F WCI  16
SAUK CENTRE    FAIR      23  21  90 S9        29.82S WCI  13
PAYNESVILLE    CLOUDY    26  26 100 SW8       29.84F WCI  17
AITKIN         CLOUDY    25  19  80 S6        29.79S WCI  18
PINE RIVER     CLOUDY    16  14  93 SE5       29.82S WCI   9
BRAINERD       CLOUDY    22  19  89 S8        29.81R FOG     WCI  12
STAPLES        CLOUDY    18  16  93 S5        29.81R WCI  11
LONG PRAIRIE   FAIR      25  21  86 S9        29.81R WCI  15
LITTLE FALLS   CLOUDY    21  19  93 CALM      29.84R
LITCHFIELD     CLOUDY    25  25 100 S3        29.86F
BUFFALO        CLOUDY    27  24  87 S7        29.89S WCI  20
MAPLE LAKE     CLOUDY    27  26  96 S7        29.87F WCI  19
HUTCHINSON     CLOUDY    24  24  97 S7        29.89F WCI  16
$$
MNZ037-044-045-052-053-181400-
   East Central Minnesota

CITY           SKY/WX    TMP DP  RH WIND       PRES   REMARKS
PRINCETON      CLOUDY    27  25  93 S8        29.85F WCI  18
MORA           CLOUDY    25  23  93 S10       29.86F WCI  15
CAMBRIDGE      CLOUDY    27  21  80 S9        29.85F HAZE    WCI  17
RUSH CITY      PTCLDY    27  23  86 S12       29.86F WCI  16
MOOSE LAKE     CLOUDY    28  25  86 SW10      29.81R WCI  19
HINCKLEY       FAIR      27  25  93 SW7       29.86R WCI  19
CLOQUET        CLOUDY    27  25  93 SW13      29.79R WCI  16
MCGREGOR       CLOUDY    28  25  86 S10       29.80S WCI  19
$$
MNZ071>073-080-081-089-090-097-098-181400-
   Southwest Minnesota

CITY           SKY/WX    TMP DP  RH WIND       PRES   REMARKS
MONTEVIDEO     CLOUDY    27  25  93 SW12      29.86S WCI  16
GRANITE FALLS  CLOUDY    24  22  92 S13       29.87S WCI  12
CANBY            N/A     33  26  76 CALM      29.85R
MARSHALL       CLOUDY    30  26  85 SW9       29.85F WCI  22
REDWOOD FALLS  CLOUDY    25  21  85 S14       29.88F WCI  13
OLIVIA         CLOUDY    27  23  86 S8        29.87S WCI  18
PIPESTONE      CLOUDY    25  23  93 SW6       29.87F WCI  18
WINDOM         CLOUDY    30  27  86 SW12      29.88F WCI  21
WORTHINGTON    CLOUDY    28  25  88 SW15      29.90F WCI  16
JACKSON        CLOUDY    28  27  93 SW7       29.91F WCI  21
TRACY          CLOUDY    31  28  86 SW22      29.85F WCI  18
SLAYTON        CLOUDY    26  25  94 SW16      29.88F WCI  14
$$
MNZ065>067-074>077-082>085-091>093-181400-
   South Central Minnesota

CITY           SKY/WX    TMP DP  RH WIND       PRES   REMARKS
MANKATO        CLOUDY    27  26  96 S9        29.95F WCI  18
NEW ULM        CLOUDY    25  21  86 S8        29.92S WCI  16
ST JAMES       CLOUDY    27  25  93 S8        29.93F WCI  18
FAIRMONT       CLEAR     29  27  92 S9        29.95S WCI  20
GLENCOE        CLOUDY    27  27  99 S12       29.90S WCI  17
FARIBAULT      CLOUDY    27  27 100 S10       29.95F WCI  17
OWATONNA       CLOUDY    28  25  86 S10       29.96S WCI  19
WASECA         CLOUDY    28  27  93 S10       29.97S FOG     WCI  19
ALBERT LEA     CLOUDY    28  28 100 S3        29.97F FOG
$$
MNZ078>079-086>088-094>096-181400-
   Southeast Minnesota

CITY           SKY/WX    TMP DP  RH WIND       PRES   REMARKS
ROCHESTER      CLOUDY    26  26 100 S17       29.99S FOG     WCI  13
RED WING       CLOUDY    28  25  86 S3        29.97F
STANTON        CLOUDY    28  25  86 S8        29.94F WCI  20
DODGE CENTER   CLOUDY    27  25  93 S7        29.97S FOG     WCI  19
WINONA         CLOUDY    32  28  86 CALM      30.04S
AUSTIN         CLOUDY    27  27 100 S8        29.99F FOG     WCI  18
PRESTON        CLOUDY    27  25  95 S14       30.01F FOG     WCI  15
$$
ABBREVIATIONS USED IN REMARKS
   TC - TEMPERATURES IN CELSIUS
  WCI - WIND CHILL INDEX
   HX - HEAT INDEX
  VSB - VISIBILITY
$$




USA.gov is the U.S. government's official web portal to all federal, state and local government web resources and services.